Time,TemperatureF,DewpointF,PressureIn,WindDirection,WindDirectionDegrees,WindSpeedMPH,WindSpeedGustMPH,Humidity,HourlyPrecipIn,Conditions,Clouds,dailyrainin,SoftwareType,DateUTC
2013-02-24 00:01:00,31.0,29.0,30.20,ENE,68,0.0,6.0,92,0.00,,,0.00,,2013-02-24 00:01:00,
2013-02-24 00:11:00,31.0,29.0,30.20,ENE,68,0.0,6.0,92,0.00,,,0.00,,2013-02-24 00:11:00,
2013-02-24 00:21:00,32.0,30.0,30.20,NE,38,3.0,10.0,91,0.00,,,0.00,,2013-02-24 00:21:00,
2013-02-24 00:31:00,32.0,30.0,30.20,NE,38,3.0,10.0,91,0.00,,,0.00,,2013-02-24 00:31:00,
2013-02-24 00:42:00,32.0,30.0,30.20,NE,38,3.0,10.0,91,0.00,,,0.00,,2013-02-24 00:42:00,
2013-02-24 00:52:00,32.0,30.0,30.20,ENE,70,3.0,8.0,91,0.00,,,0.00,,2013-02-24 00:52:00,
2013-02-24 01:01:00,32.0,30.0,30.20,NE,42,0.0,8.0,91,0.00,,,0.00,,2013-02-24 01:01:00,
2013-02-24 01:11:00,32.0,30.0,30.20,NE,42,0.0,8.0,91,0.00,,,0.00,,2013-02-24 01:11:00,
2013-02-24 01:22:00,32.0,30.0,30.20,NE,39,0.0,6.0,91,0.00,,,0.00,,2013-02-24 01:22:00,
2013-02-24 01:31:00,32.0,30.0,30.20,NE,39,0.0,6.0,91,0.00,,,0.00,,2013-02-24 01:31:00,
2013-02-24 01:41:00,32.0,30.0,30.20,NE,39,0.0,6.0,91,0.00,,,0.00,,2013-02-24 01:41:00,
2013-02-24 01:51:00,32.0,29.0,30.20,NE,51,3.0,8.0,90,0.00,,,0.00,,2013-02-24 01:51:00,
2013-02-24 02:01:00,32.0,29.0,30.20,NE,53,3.0,8.0,90,0.00,,,0.00,,2013-02-24 02:01:00,
2013-02-24 02:11:00,32.0,29.0,30.20,NE,53,3.0,8.0,90,0.00,,,0.00,,2013-02-24 02:11:00,
2013-02-24 02:21:00,32.0,29.0,30.20,NNE,33,0.0,6.0,89,0.00,,,0.00,,2013-02-24 02:21:00,
2013-02-24 02:31:00,32.0,29.0,30.20,NNE,31,0.0,6.0,89,0.00,,,0.00,,2013-02-24 02:31:00,
2013-02-24 02:41:00,32.0,29.0,30.20,NNE,31,0.0,6.0,89,0.00,,,0.00,,2013-02-24 02:41:00,
2013-02-24 02:52:00,32.0,29.0,30.20,NNE,31,0.0,6.0,89,0.00,,,0.00,,2013-02-24 02:52:00,
2013-02-24 03:01:00,32.0,29.0,30.19,ENE,64,0.0,4.0,89,0.00,,,0.00,,2013-02-24 03:01:00,
2013-02-24 03:11:00,32.0,29.0,30.19,ENE,64,0.0,4.0,89,0.00,,,0.00,,2013-02-24 03:11:00,
2013-02-24 03:21:00,32.0,29.0,30.19,ENE,64,0.0,4.0,89,0.00,,,0.00,,2013-02-24 03:21:00,
2013-02-24 03:31:00,32.0,29.0,30.19,NE,45,3.0,6.0,87,0.00,,,0.00,,2013-02-24 03:31:00,
2013-02-24 03:42:00,32.0,29.0,30.19,NE,45,3.0,6.0,87,0.00,,,0.00,,2013-02-24 03:42:00,
2013-02-24 03:52:00,32.0,28.0,30.19,ENE,78,0.0,6.0,86,0.00,,,0.00,,2013-02-24 03:52:00,
2013-02-24 04:01:00,32.0,28.0,30.19,ENE,78,0.0,6.0,86,0.00,,,0.00,,2013-02-24 04:01:00,
2013-02-24 04:11:00,32.0,28.0,30.19,ENE,78,0.0,6.0,86,0.00,,,0.00,,2013-02-24 04:11:00,
2013-02-24 04:21:00,32.0,28.0,30.19,NE,53,0.0,4.0,86,0.00,,,0.00,,2013-02-24 04:21:00,
2013-02-24 04:31:00,32.0,28.0,30.19,NE,53,0.0,4.0,86,0.00,,,0.00,,2013-02-24 04:31:00,
2013-02-24 04:41:00,32.0,28.0,30.19,NE,53,0.0,4.0,86,0.00,,,0.00,,2013-02-24 04:41:00,
2013-02-24 04:51:00,32.0,28.0,30.19,NE,54,3.0,6.0,86,0.00,,,0.00,,2013-02-24 04:51:00,
2013-02-24 05:01:00,32.0,28.0,30.19,NNE,29,3.0,10.0,86,0.00,,,0.00,,2013-02-24 05:01:00,
2013-02-24 05:11:00,32.0,28.0,30.19,NNE,29,3.0,10.0,86,0.00,,,0.00,,2013-02-24 05:11:00,
2013-02-24 05:21:00,32.0,28.0,30.19,NE,37,3.0,8.0,86,0.00,,,0.00,,2013-02-24 05:21:00,
2013-02-24 05:32:00,32.0,28.0,30.19,ENE,68,0.0,6.0,86,0.00,,,0.00,,2013-02-24 05:32:00,
2013-02-24 05:42:00,32.0,28.0,30.19,ENE,68,0.0,6.0,86,0.00,,,0.00,,2013-02-24 05:42:00,
2013-02-24 05:52:00,32.0,28.0,30.19,ENE,60,3.0,6.0,85,0.00,,,0.00,,2013-02-24 05:52:00,
2013-02-24 06:01:00,32.0,28.0,30.19,ENE,60,3.0,6.0,85,0.00,,,0.00,,2013-02-24 06:01:00,
2013-02-24 06:11:00,32.0,28.0,30.19,ENE,60,3.0,6.0,85,0.00,,,0.00,,2013-02-24 06:11:00,
2013-02-24 06:21:00,32.0,28.0,30.20,NE,40,3.0,6.0,85,0.00,,,0.00,,2013-02-24 06:21:00,
2013-02-24 06:31:00,32.0,28.0,30.20,NE,44,3.0,10.0,86,0.00,,,0.00,,2013-02-24 06:31:00,
2013-02-24 06:41:00,32.0,28.0,30.20,NE,44,3.0,10.0,86,0.00,,,0.00,,2013-02-24 06:41:00,
2013-02-24 06:52:00,32.0,28.0,30.20,ENE,63,3.0,6.0,86,0.00,,,0.00,,2013-02-24 06:52:00,
2013-02-24 07:01:00,32.0,28.0,30.21,NE,43,3.0,10.0,86,0.00,,,0.00,,2013-02-24 07:01:00,
2013-02-24 07:11:00,32.0,28.0,30.21,NE,43,3.0,10.0,86,0.00,,,0.00,,2013-02-24 07:11:00,
2013-02-24 07:21:00,32.0,28.0,30.21,NE,35,3.0,4.0,86,0.00,,,0.00,,2013-02-24 07:21:00,
2013-02-24 07:31:00,32.0,28.0,30.21,ENE,60,0.0,4.0,86,0.00,,,0.00,,2013-02-24 07:31:00,
2013-02-24 07:41:00,32.0,28.0,30.21,ENE,60,0.0,4.0,86,0.00,,,0.00,,2013-02-24 07:41:00,
2013-02-24 07:51:00,32.0,28.0,30.22,ENE,63,3.0,6.0,86,0.00,,,0.00,,2013-02-24 07:51:00,
2013-02-24 08:01:00,32.0,28.0,30.22,ENE,63,3.0,6.0,86,0.00,,,0.00,,2013-02-24 08:01:00,
2013-02-24 08:11:00,32.0,28.0,30.22,ENE,63,3.0,6.0,86,0.00,,,0.00,,2013-02-24 08:11:00,
2013-02-24 08:22:00,32.0,28.0,30.22,ENE,63,3.0,6.0,86,0.00,,,0.00,,2013-02-24 08:22:00,
2013-02-24 08:31:00,32.0,28.0,30.22,East,88,3.0,6.0,86,0.00,,,0.00,,2013-02-24 08:31:00,
2013-02-24 08:42:00,32.0,28.0,30.22,East,88,3.0,6.0,86,0.00,,,0.00,,2013-02-24 08:42:00,
2013-02-24 08:53:00,32.0,28.0,30.22,East,88,3.0,6.0,86,0.00,,,0.00,,2013-02-24 08:53:00,
2013-02-24 09:01:00,33.0,29.0,30.22,NE,39,3.0,3.0,86,0.00,,,0.00,,2013-02-24 09:01:00,
2013-02-24 09:11:00,33.0,29.0,30.22,NE,39,3.0,3.0,86,0.00,,,0.00,,2013-02-24 09:11:00,
2013-02-24 09:21:00,33.0,29.0,30.23,NE,39,3.0,3.0,86,0.00,,,0.00,,2013-02-24 09:21:00,
2013-02-24 09:31:00,33.0,29.0,30.23,NE,50,3.0,10.0,85,0.00,,,0.00,,2013-02-24 09:31:00,
2013-02-24 09:41:00,33.0,29.0,30.23,NE,50,3.0,10.0,85,0.00,,,0.00,,2013-02-24 09:41:00,
2013-02-24 09:52:00,33.0,29.0,30.23,NE,43,3.0,12.0,85,0.00,,,0.00,,2013-02-24 09:52:00,
2013-02-24 10:01:00,33.0,29.0,30.23,NE,38,3.0,8.0,84,0.00,,,0.00,,2013-02-24 10:01:00,
2013-02-24 10:11:00,33.0,29.0,30.23,NE,38,3.0,8.0,84,0.00,,,0.00,,2013-02-24 10:11:00,
2013-02-24 10:21:00,33.0,29.0,30.23,NE,54,3.0,6.0,85,0.00,,,0.00,,2013-02-24 10:21:00,
2013-02-24 10:31:00,33.0,29.0,30.24,NNE,16,0.0,6.0,84,0.00,,,0.00,,2013-02-24 10:31:00,
2013-02-24 10:41:00,33.0,29.0,30.24,NNE,16,0.0,6.0,84,0.00,,,0.00,,2013-02-24 10:41:00,
2013-02-24 10:51:00,33.0,29.0,30.24,NNE,16,0.0,6.0,84,0.00,,,0.00,,2013-02-24 10:51:00,
2013-02-24 11:01:00,34.0,29.0,30.24,NE,38,3.0,6.0,83,0.00,,,0.00,,2013-02-24 11:01:00,
2013-02-24 11:11:00,34.0,29.0,30.24,NE,38,3.0,6.0,83,0.00,,,0.00,,2013-02-24 11:11:00,
2013-02-24 11:21:00,34.0,29.0,30.24,NNE,28,3.0,10.0,82,0.00,,,0.00,,2013-02-24 11:21:00,
2013-02-24 11:32:00,34.0,29.0,30.24,NNE,29,3.0,8.0,81,0.00,,,0.00,,2013-02-24 11:32:00,
2013-02-24 11:41:00,34.0,29.0,30.24,NNE,29,3.0,8.0,81,0.00,,,0.00,,2013-02-24 11:41:00,
2013-02-24 11:52:00,35.0,30.0,30.24,NE,38,3.0,10.0,81,0.00,,,0.00,,2013-02-24 11:52:00,
2013-02-24 12:01:00,35.0,30.0,30.24,NE,37,3.0,8.0,81,0.00,,,0.00,,2013-02-24 12:01:00,
2013-02-24 12:11:00,35.0,30.0,30.24,NE,37,3.0,8.0,81,0.00,,,0.00,,2013-02-24 12:11:00,
2013-02-24 12:21:00,35.0,30.0,30.24,NE,37,3.0,8.0,81,0.00,,,0.00,,2013-02-24 12:21:00,
2013-02-24 12:32:00,35.0,30.0,30.23,NE,34,0.0,10.0,82,0.00,,,0.00,,2013-02-24 12:32:00,
2013-02-24 12:45:00,35.0,30.0,30.23,NE,34,0.0,10.0,82,0.00,,,0.00,,2013-02-24 12:45:00,
2013-02-24 12:56:00,35.0,30.0,30.23,NNE,30,3.0,10.0,81,0.00,,,0.00,,2013-02-24 12:56:00,
2013-02-24 13:06:00,35.0,30.0,30.23,NE,36,3.0,12.0,82,0.00,,,0.00,,2013-02-24 13:06:00,
2013-02-24 13:15:00,35.0,30.0,30.23,NE,36,3.0,12.0,82,0.00,,,0.00,,2013-02-24 13:15:00,
2013-02-24 13:23:00,35.0,30.0,30.23,NNE,33,3.0,6.0,82,0.00,,,0.00,,2013-02-24 13:23:00,
2013-02-24 13:33:00,35.0,30.0,30.23,NNE,26,0.0,6.0,82,0.00,,,0.00,,2013-02-24 13:33:00,
2013-02-24 13:42:00,35.0,30.0,30.23,NNE,26,0.0,6.0,82,0.00,,,0.00,,2013-02-24 13:42:00,
2013-02-24 13:52:00,35.0,30.0,30.23,NNE,24,3.0,12.0,82,0.00,,,0.00,,2013-02-24 13:52:00,
2013-02-24 14:02:00,35.0,30.0,30.23,NE,35,3.0,10.0,82,0.00,,,0.00,,2013-02-24 14:02:00,
2013-02-24 14:12:00,35.0,30.0,30.23,NE,35,3.0,10.0,82,0.00,,,0.00,,2013-02-24 14:12:00,
2013-02-24 14:21:00,35.0,29.0,30.22,NE,38,3.0,6.0,79,0.00,,,0.00,,2013-02-24 14:21:00,
2013-02-24 14:32:00,35.0,30.0,30.23,NE,35,3.0,10.0,82,0.00,,,0.00,,2013-02-24 14:32:00,
2013-02-24 14:43:00,35.0,30.0,30.23,NE,35,3.0,10.0,82,0.00,,,0.00,,2013-02-24 14:43:00,
2013-02-24 14:54:00,35.0,29.0,30.22,NE,38,3.0,6.0,79,0.00,,,0.00,,2013-02-24 14:54:00,
2013-02-24 15:02:00,35.0,29.0,30.22,NE,38,3.0,6.0,79,0.00,,,0.00,,2013-02-24 15:02:00,
2013-02-24 15:12:00,35.0,29.0,30.22,NE,38,3.0,6.0,79,0.00,,,0.00,,2013-02-24 15:12:00,
2013-02-24 17:52:00,34.0,29.0,30.24,ENE,67,0.0,6.0,81,0.00,,,0.00,,2013-02-24 17:52:00,
2013-02-24 18:01:00,34.0,29.0,30.25,NE,53,3.0,8.0,81,0.00,,,0.00,,2013-02-24 18:01:00,
2013-02-24 18:11:00,34.0,29.0,30.25,NE,53,3.0,8.0,81,0.00,,,0.00,,2013-02-24 18:11:00,
2013-02-24 18:21:00,34.0,29.0,30.25,NNE,33,3.0,6.0,81,0.00,,,0.00,,2013-02-24 18:21:00,
2013-02-24 18:31:00,34.0,28.0,30.25,ENE,59,3.0,10.0,80,0.00,,,0.00,,2013-02-24 18:31:00,
2013-02-24 18:41:00,34.0,28.0,30.25,ENE,59,3.0,10.0,80,0.00,,,0.00,,2013-02-24 18:41:00,
2013-02-24 18:52:00,34.0,28.0,30.26,NE,51,3.0,8.0,79,0.00,,,0.00,,2013-02-24 18:52:00,
2013-02-24 19:01:00,34.0,28.0,30.26,NE,44,3.0,10.0,79,0.00,,,0.00,,2013-02-24 19:01:00,
2013-02-24 19:11:00,34.0,28.0,30.26,NE,44,3.0,10.0,79,0.00,,,0.00,,2013-02-24 19:11:00,
2013-02-24 19:22:00,34.0,28.0,30.26,NE,43,3.0,10.0,79,0.00,,,0.00,,2013-02-24 19:22:00,
2013-02-24 19:31:00,34.0,28.0,30.26,NNE,27,3.0,8.0,78,0.00,,,0.00,,2013-02-24 19:31:00,
2013-02-24 19:41:00,34.0,28.0,30.26,NNE,27,3.0,8.0,78,0.00,,,0.00,,2013-02-24 19:41:00,
2013-02-24 19:51:00,34.0,28.0,30.26,NE,47,3.0,12.0,79,0.00,,,0.00,,2013-02-24 19:51:00,
2013-02-24 20:02:00,34.0,28.0,30.26,NE,47,3.0,12.0,79,0.00,,,0.00,,2013-02-24 20:02:00,
2013-02-24 20:11:00,34.0,28.0,30.26,NE,47,3.0,12.0,79,0.00,,,0.00,,2013-02-24 20:11:00,
2013-02-24 20:21:00,34.0,28.0,30.25,NE,41,3.0,8.0,78,0.00,,,0.00,,2013-02-24 20:21:00,
2013-02-24 20:32:00,34.0,28.0,30.26,NE,41,0.0,12.0,78,0.00,,,0.00,,2013-02-24 20:32:00,
2013-02-24 20:42:00,34.0,28.0,30.26,NE,41,0.0,12.0,78,0.00,,,0.00,,2013-02-24 20:42:00,
2013-02-24 20:52:00,34.0,28.0,30.26,NE,55,3.0,6.0,77,0.00,,,0.00,,2013-02-24 20:52:00,
2013-02-24 21:01:00,34.0,28.0,30.26,NNE,29,3.0,14.0,78,0.00,,,0.00,,2013-02-24 21:01:00,
2013-02-24 21:11:00,34.0,28.0,30.26,NNE,29,3.0,14.0,78,0.00,,,0.00,,2013-02-24 21:11:00,
2013-02-24 21:21:00,34.0,28.0,30.26,NNE,29,3.0,14.0,78,0.00,,,0.00,,2013-02-24 21:21:00,
2013-02-24 21:32:00,34.0,28.0,30.27,NNE,32,3.0,8.0,80,0.00,,,0.00,,2013-02-24 21:32:00,
2013-02-24 21:41:00,34.0,28.0,30.27,NNE,32,3.0,8.0,80,0.00,,,0.00,,2013-02-24 21:41:00,
2013-02-24 21:52:00,34.0,28.0,30.27,NNE,32,3.0,8.0,80,0.00,,,0.00,,2013-02-24 21:52:00,
2013-02-24 22:01:00,34.0,29.0,30.27,NNE,22,3.0,8.0,81,0.00,,,0.00,,2013-02-24 22:01:00,
2013-02-24 22:11:00,34.0,29.0,30.27,NNE,22,3.0,8.0,81,0.00,,,0.00,,2013-02-24 22:11:00,
2013-02-24 22:21:00,34.0,29.0,30.26,NE,34,3.0,6.0,81,0.00,,,0.00,,2013-02-24 22:21:00,
2013-02-24 22:31:00,34.0,29.0,30.26,NNE,30,3.0,6.0,81,0.00,,,0.00,,2013-02-24 22:31:00,
2013-02-24 22:41:00,34.0,29.0,30.26,NNE,30,3.0,6.0,81,0.00,,,0.00,,2013-02-24 22:41:00,
2013-02-24 22:52:00,34.0,29.0,30.26,NE,43,3.0,8.0,81,0.00,,,0.00,,2013-02-24 22:52:00,
2013-02-24 23:01:00,33.0,28.0,30.26,NE,36,0.0,6.0,82,0.00,,,0.00,,2013-02-24 23:01:00,
2013-02-24 23:11:00,33.0,28.0,30.26,NE,36,0.0,6.0,82,0.00,,,0.00,,2013-02-24 23:11:00,
2013-02-24 23:21:00,33.0,28.0,30.26,NE,49,3.0,4.0,82,0.00,,,0.00,,2013-02-24 23:21:00,
2013-02-24 23:31:00,33.0,28.0,30.26,NE,34,3.0,8.0,82,0.00,,,0.00,,2013-02-24 23:31:00,
2013-02-24 23:41:00,33.0,28.0,30.26,NE,34,3.0,8.0,82,0.00,,,0.00,,2013-02-24 23:41:00,
2013-02-24 23:52:00,33.0,28.0,30.26,NE,34,3.0,8.0,82,0.00,,,0.00,,2013-02-24 23:52:00,